Location: Malvern Link
(52.1333°N, 2.3000°W)
Time: 09:23:56
(UTC+00:00)

ITUPSAT 1 - Visible Passes

Search period start: 27 June 2022 00:00
Search period end: 07 July 2022 00:00
Orbit: 700 x 712 km, 98.6° (Epoch: 27 June)

Date Brightness Start Highest point End Pass type
(mag) Time Alt. Az. Time Alt. Az. Time Alt. Az.
27 Jun ? 22:52:15 10° NNW 22:54:14 13° NW 22:56:14 10° WNW visible
28 Jun ? 21:56:52 10° N 22:00:58 29° WNW 22:05:03 10° WSW visible
29 Jun ? 22:41:43 10° NNW 22:44:19 15° NW 22:46:57 10° W visible
30 Jun ? 21:46:40 10° N 21:50:58 34° WNW 21:55:17 10° SW visible
01 Jul ? 22:31:19 10° NNW 22:34:24 17° NW 22:37:29 10° W visible
02 Jul ? 21:36:29 10° N 21:40:59 41° WNW 21:45:27 10° SW visible
03 Jul ? 22:20:59 10° N 22:24:27 20° NW 22:27:55 10° WSW visible
04 Jul ? 21:26:20 10° N 21:30:57 49° WNW 21:35:34 10° SW visible
04 Jul ? 23:06:59 10° NW 23:07:41 10° NW 23:08:23 10° NW visible
05 Jul ? 22:10:42 10° N 22:14:29 24° WNW 22:18:17 10° WSW visible
06 Jul ? 21:16:11 10° N 21:20:55 60° WNW 21:25:38 10° SSW visible
06 Jul ? 22:55:54 10° NNW 22:57:46 12° NW 22:59:39 10° WNW visible
